Location: Kellogg
(38.0159°N, 90.0546°W)
Time: 22:22:26
(UTC+00:00)

Vanguard 3 - Visible Passes

Search period start: 11 September 2024 00:00
Search period end: 21 September 2024 00:00
Orbit: 507 x 3226 km, 33.3° (Epoch: 10 September)

Date Brightness Start Highest point End Pass type
(mag) Time Alt. Az. Time Alt. Az. Time Alt. Az.
11 Sep 11.3 10:55:28 10° S 11:09:29 26° SE 11:23:10 10° E visible
12 Sep 11.5 09:40:46 10° SSE 09:48:52 14° SE 09:57:15 10° ESE visible
13 Sep 11.2 10:27:23 10° S 10:41:18 28° SE 10:55:43 10° E visible
14 Sep 11.3 09:12:28 10° SSE 09:20:51 15° SE 09:29:49 10° ESE visible
14 Sep 11.0 11:17:28 10° SSW 11:34:06 42° SE 11:50:44 10° E visible
15 Sep 11.1 09:59:30 10° S 10:13:03 29° SE 10:27:59 10° E visible
16 Sep 11.2 08:44:30 10° SSE 08:52:48 16° SE 09:02:00 10° E visible
16 Sep 10.9 10:49:39 10° SSW 11:05:42 44° SE 11:23:01 10° E visible
17 Sep 10.9 09:31:49 10° S 09:44:47 29° SE 09:59:57 10° E visible
18 Sep 11.0 08:16:48 10° SSE 08:24:44 16° SE 08:33:52 10° E visible
18 Sep 10.7 10:22:01 10° SSW 10:37:15 45° SE 10:55:00 10° E visible
19 Sep 10.7 09:06:02 14° S 09:16:30 30° SE 09:31:39 10° E visible
19 Sep 10.5 11:13:34 10° SW 11:30:21 60° SSE 11:49:04 10° E visible
20 Sep 10.9 07:51:39 13° SSE 07:56:43 16° SE 08:05:27 10° E visible
20 Sep 10.5 09:55:47 14° SSW 10:08:48 46° SE 10:26:46 10° E visible
